STARLINK-33777, 63843

Orbit data source: Space-Track

STARLINK-33777, 63843 is a payload satellite owned by SpaceX/Seattle (US) in LEO that was launched on Wed, 07 May 2025 UTC via an FALCON 9 launch vehicle from the Air Force Eastern Test Range (AFETR). Payload-class satellites include a variety of spacecraft equipped with specific instruments for various scientific and technological missions. These include communications satellites like Starlink; space stations such as the ISS; scientific satellites like the Hubble; Earth observation satellites from companies like Planet Labs, Umbra, and HawkEye 360; GPS; miniature CubeSats for education and research; and military/defense satellites.

Loading next visibility...
Identifier
63843, 2025-093H
Orbit
LEO
Country
Flag of USUS
Related business
Manufacturer
SpaceX/Seattle
Mission
Operational Commercial Communications
Bus & Motor
STARLINK V2MO, Unknown motor
Mass
575 kg wet, ~530 kg dry
Launch date (UTC)
2025-05-07 (7 months ago)
Launch vehicle
FALCON 9
Launch site
Air Force Eastern Test Range (AFETR)
Object type
Payload
Rocket body
Debris
Shape & HBR
Box + 2 Pan, 17.7 m
Radar Cross Section
36.964 m², Large (>1 m²)

Expand to show TLE details & history
Last TLE update: 6 hours ago

TLE from 6 hours ago
0 STARLINK-33777
1 63843U 25093H   25349.91929602  .00014690  00000-0  54255-3 0  9998
2 63843  42.9997 190.7255 0000457  91.4399 268.6505 15.27563553 35165
Epoch: 2025-12-15T22:03Z
TLE epoch observation values (Epoch: 2025-12-15T22:03:47.176Z)
Latitude
-0°
Longitude
134.96798°
Altitude
482.881 km
Speed
7.626 km/s
True Right ascension
12h 42m 54s
True Declination
0° 00' 00"
Sunlit
Object was in daylight at epoch
Visualization orbit readout
Latitude
Unknown
Longitude
Unknown
Altitude
Unknown
Speed
Unknown
Apparent Right ascension
Unknown
Apparent Declination
Unknown
Sunlit
N/A
Visualization observer readout
Local Sidereal Time
03:10:45
Azimuth
Unknown
Elevation
Unknown
Doppler factor
Unknown
Orbital elements
Apogee altitude
485.357 km
Perigee altitude
484.73 km
Semi-major axis
6,863.181 km
Eccentricity
0.00005
Inclination
42.9997°
RAAN
190.7255°
Arg. of periapsis
91.4399°
True anomaly
268.64526°
Mean anomaly
268.6505°
Eccentric anomaly
268.64788°
Mean motion
3.81729 °/min
Orbital period
94.31 mins
BSTAR
0.00054255
Loading maneuver chart data...
Computing Atmospheric mass density...
Loading historical data...
Loading historical data...
Loading historical data...
Loading historical data...
Loading historical data...
Loading historical data...
Loading historical data...

Documentation

Showing up to 5 results
|